[[{"header":{"parameterUnit":"m.s-1","parameterCategory":2,"la1":30.2991,"la2":30.254,"lo1":-89.0895,"lo2":-89.0444,"dy":0.0017,"dx":0.0017,"nx":28,"ny":28,"refTime":"2023-10-19T03:00:00:Z","depth":"0","parameterNumber":2,"parameterNumberName":"U-component_of_CURRENTS"},"data":[0,0,0,0,0,0,0,0,0,0,0,0,0,0,0,0,0,0,0,0,0,0,0,0,0,0,0,0,0,0,0,0,0,0,0,0,0,0,0,0,0,0,0,0,0,0,0,0,0,0,0,0,0,0,0,0,0,0,-0.2862,-0.2862,0,-0.2871,-0.287,-0.287,-0.2847,-0.2847,-0.2847,-0.2847,-0.2794,-0.2792,-0.2791,0,0,0,0,0,0,0,0,0,0,0,0,0,-0.2768,-0.2769,-0.2862,-0.2863,-0.2863,-0.2871,-0.287,-0.287,-0.2847,-0.2847,-0.2847,-0.2847,-0.2794,-0.2793,-0.2791,0,0,0,0,0,0,0,0,0,0,0,0,0,-0.2788,-0.277,-0.2861,-0.286,-0.286,-0.2871,-0.287,-0.2869,-0.2847,-0.2847,-0.2847,-0.2847,-0.2795,-0.2793,-0.2791,-0.2774,0,0,-0.2784,-0.2783,0,0,0,0,0,0,0,0,-0.2787,-0.279,-0.2859,-0.286,-0.2861,-0.2866,-0.2818,-0.2837,-0.2847,-0.2842,-0.2847,-0.2847,-0.2818,-0.2814,-0.2803,-0.2771,-0.2769,-0.2783,-0.2782,-0.2781,-0.278,0,0,0,0,0,0,0,-0.2785,-0.2789,-0.2856,-0.286,-0.2861,-0.284,-0.2842,-0.2821,-0.2821,-0.2843,-0.2843,-0.2859,-0.2817,-0.2806,-0.2802,-0.2768,-0.2784,-0.2782,-0.278,-0.2779,-0.2611,-0.2608,0,0,0,0,0,0,-0.2805,-0.2788,-0.2856,-0.2857,-0.2833,-0.2842,-0.2845,-0.2857,-0.2823,-0.2821,-0.2859,-0.2858,-0.2809,-0.2805,-0.28,-0.272,-0.2781,-0.2779,-0.2778,-0.2614,-0.261,-0.2607,0,0,0,0,0,0,-0.2803,-0.2811,-0.2856,-0.283,-0.2836,-0.2845,-0.2858,-0.2857,-0.2854,-0.2837,-0.2832,-0.2859,-0.2809,-0.2803,-0.2745,-0.272,-0.2778,-0.2776,-0.2617,-0.2613,-0.2608,-0.2598,0,0,0,0,0,0,-0.28,-0.281,-0.2811,-0.2832,-0.2838,-0.2842,-0.2859,-0.2857,-0.2867,-0.2866,-0.2836,-0.283,-0.2809,-0.2748,-0.2743,-0.2718,-0.2774,-0.2621,-0.2615,-0.261,-0.2602,-0.2594,-0.2586,0,0,0,0,0,-0.2797,-0.2774,-0.2811,-0.2819,-0.2844,-0.2842,-0.284,-0.2842,-0.2867,-0.2844,-0.2814,-0.2832,-0.2707,-0.2744,-0.2738,-0.2713,-0.2624,-0.2617,-0.261,-0.2606,-0.2595,-0.2586,0,0,0,0,0,0,-0.2713,-0.2773,-0.2811,-0.2806,-0.2827,-0.2841,-0.2809,-0.2849,-0.2812,-0.2799,-0.28,-0.2789,-0.2727,-0.2711,-0.2753,-0.2638,-0.2666,-0.2657,-0.2664,-0.2654,-0.2646,-0.2654,-0.2772,0,0,0,0,0,-0.271,-0.2706,-0.2772,-0.2756,-0.2768,-0.2802,-0.2803,-0.2816,-0.2802,-0.2788,-0.2781,-0.2742,-0.2692,-0.2669,-0.2621,-0.2571,-0.2557,-0.2543,-0.2535,-0.2529,-0.2525,-0.2511,-0.2504,-0.2583,-0.2584,-0.2584,0,0,-0.2665,-0.2701,-0.2695,-0.2739,-0.2745,-0.274,-0.2796,-0.2782,-0.277,-0.2786,-0.2736,-0.2718,-0.267,-0.2598,-0.2569,-0.2586,-0.2482,-0.252,-0.2516,-0.2515,-0.2503,-0.2496,-0.249,-0.2579,-0.258,-0.258,0,0,-0.2568,-0.2614,-0.2586,-0.2612,-0.2646,-0.267,-0.2679,-0.2709,-0.2706,-0.2672,-0.2671,-0.2639,-0.2575,-0.254,-0.2512,-0.2432,-0.2442,-0.2415,-0.2386,-0.2373,-0.2368,-0.2364,-0.2282,-0.2271,-0.2411,-0.2411,-0.2411,0,-0.2511,-0.2521,-0.2569,-0.2561,-0.2581,-0.2644,-0.2633,-0.2626,-0.2634,-0.2638,-0.2637,-0.2569,-0.254,-0.2476,-0.2435,-0.2419,-0.2394,-0.2439,-0.2369,-0.2365,-0.236,-0.2279,-0.2266,-0.241,-0.241,-0.241,-0.241,0,-0.2417,-0.2434,-0.2408,-0.2436,-0.245,-0.2441,-0.2484,-0.2485,-0.2511,-0.253,-0.2491,-0.2455,-0.2428,-0.2405,-0.2391,-0.2344,-0.2326,-0.2369,-0.2412,-0.2353,-0.2268,-0.2255,-0.2408,-0.2409,-0.2409,-0.2409,0,0,-0.2276,-0.2337,-0.2332,-0.2364,-0.2405,-0.2412,-0.2385,-0.2409,-0.2418,-0.2403,-0.2404,-0.2324,-0.2359,-0.2327,-0.2327,-0.2308,-0.2238,-0.2323,-0.2323,-0.227,-0.2159,-0.2049,-0.2024,-0.229,-0.2289,-0.2288,-0.2094,0,-0.2199,-0.2193,-0.2238,-0.223,-0.2247,-0.2312,-0.2298,-0.2319,-0.2337,-0.2342,-0.2329,-0.2311,-0.2312,-0.2314,-0.229,-0.2268,-0.2213,-0.2283,-0.2198,-0.2193,-0.2129,-0.201,-0.19,-0.1712,-0.2082,-0.208,-0.2079,0,-0.2114,-0.2139,-0.2131,-0.2207,-0.2216,-0.221,-0.2257,-0.2255,-0.227,-0.2285,-0.2281,-0.2291,-0.2245,-0.2272,-0.2178,-0.2229,-0.2177,-0.2151,-0.2145,-0.2044,-0.2061,-0.1836,-0.1676,-0.1692,-0.206,-0.2061,-0.2063,0,-0.2044,-0.2075,-0.2084,-0.2104,-0.2168,-0.2175,-0.2206,-0.2236,-0.2252,-0.2263,-0.2271,-0.2241,-0.2215,-0.2175,-0.21,-0.215,-0.1988,-0.2058,-0.1889,-0.1878,-0.1765,-0.1747,-0.1638,-0.1974,-0.1975,-0.1975,-0.1976,0,-0.1982,-0.1988,-0.2058,-0.2066,-0.2084,-0.2141,-0.2158,-0.2187,-0.222,-0.2171,-0.2245,-0.2176,-0.2198,-0.2114,-0.2066,-0.1899,-0.195,-0.1837,-0.1819,-0.1747,-0.173,-0.1726,-0.1781,-0.1968,-0.197,-0.1971,-0.1972,0,-0.1902,-0.1949,-0.1969,-0.2034,-0.2056,-0.2067,-0.2143,-0.2129,-0.2194,-0.2128,-0.2127,-0.2122,-0.1992,-0.1976,-0.1872,-0.1821,-0.1667,-0.1639,-0.1512,-0.1482,-0.1362,-0.1419,-0.1289,-0.1253,-0.1421,-0.1417,-0.1414,0,-0.186,-0.1861,-0.1932,-0.1936,-0.1962,-0.2005,-0.1999,-0.209,-0.2054,-0.2023,-0.1937,-0.1875,-0.1694,-0.1542,-0.1494,-0.1371,-0.1458,-0.1218,-0.13,-0.1289,-0.1341,-0.1424,-0.1412,-0.1117,-0.1111,-0.1107,-0.1103,0,-0.177,-0.1795,-0.1812,-0.1817,-0.1817,-0.1801,-0.1795,-0.1781,-0.1782,-0.1732,-0.1516,-0.1391,-0.1283,-0.111,-0.1068,-0.1012,-0.1203,-0.112,-0.1161,-0.111,-0.1142,-0.112,-0.1282,-0.1063,-0.1067,-0.107,-0.1072,-0.1074,-0.1683,-0.1671,-0.1673,-0.165,-0.1632,-0.1487,-0.1421,-0.1374,-0.1255,-0.107,-0.1031,-0.0777,-0.0771,-0.0693,-0.0689,-0.074,-0.0859,-0.0748,-0.0812,-0.0894,-0.0876,-0.0906,-0.0657,-0.0658,-0.066,-0.0661,-0.0662,0,-0.1529,-0.1509,-0.1493,-0.1414,-0.1276,-0.1323,-0.1182,-0.1078,-0.0838,-0.0662,-0.044,-0.0186,-0.0163,-0.03,-0.0443,-0.0455,-0.0519,-0.0495,-0.0616,-0.0617,-0.0658,-0.0665,-0.0343,-0.0343,-0.0343,-0.0343,-0.0343,-0.0343,-0.1445,-0.1341,-0.1308,-0.1027,-0.0978,-0.0747,-0.0621,-0.0477,-0.0347,-0.0017,0.0184,0.0315,0.0124,-0.0195,-0.0394,-0.04,-0.0478,-0.0436,-0.0524,-0.0601,-0.0633,-0.0663,-0.0682,-0.0368,-0.0369,-0.0442,-0.0443,-0.0443]},{"header":{"parameterUnit":"m.s-1","parameterCategory":2,"la1":30.2991,"la2":30.254,"lo1":-89.0895,"lo2":-89.0444,"dy":0.0017,"dx":0.0017,"nx":28,"ny":28,"refTime":"2023-10-19T03:00:00:Z","depth":"0","parameterNumber":3,"parameterNumberName":"V-component_of_CURRENTS"},"data":[0,0,0,0,0,0,0,0,0,0,0,0,0,0,0,0,0,0,0,0,0,0,0,0,0,0,0,0,0,0,0,0,0,0,0,0,0,0,0,0,0,0,0,0,0,0,0,0,0,0,0,0,0,0,0,0,0,0,0.0063,0.0065,0,0.0168,0.0169,0.0169,0.0254,0.0256,0.0257,0.0258,0.0501,0.0506,0.0511,0,0,0,0,0,0,0,0,0,0,0,0,0,-0.0065,-0.0063,0.0063,0.0065,0.0067,0.0168,0.0169,0.017,0.0254,0.0256,0.0257,0.0259,0.0499,0.0506,0.0512,0,0,0,0,0,0,0,0,0,0,0,0,0,0.0006,-0.0063,0.0063,0.0125,0.0132,0.0167,0.0169,0.017,0.0254,0.0256,0.0258,0.026,0.0497,0.0505,0.0513,0.0521,0,0,0.0537,0.054,0,0,0,0,0,0,0,0,0.0001,0.0009,0.0114,0.0121,0.0128,0.0205,0.0213,0.0296,0.0253,0.0202,0.0258,0.0261,0.0417,0.0431,0.0437,0.0532,0.0543,0.0537,0.0542,0.0545,0.0548,0,0,0,0,0,0,0,-0.0004,0.0006,0.01,0.0116,0.0125,0.0147,0.0159,0.0228,0.0296,0.0207,0.0214,0.0233,0.0421,0.0429,0.0444,0.0546,0.0537,0.0544,0.0549,0.0552,0.0675,0.0673,0,0,0,0,0,0,-0.0009,0.0001,0.0096,0.0103,0.0074,0.0148,0.0161,0.0174,0.0292,0.0312,0.0232,0.0237,0.0415,0.0435,0.0453,0.0466,0.0545,0.0553,0.0557,0.0676,0.0674,0.0673,0,0,0,0,0,0,-0.0012,-0.0001,0.0092,0.0059,0.0073,0.0149,0.0162,0.0175,0.019,0.031,0.0333,0.0235,0.0417,0.0442,0.0486,0.0477,0.0556,0.0563,0.0678,0.0676,0.0674,0.0495,0,0,0,0,0,0,-0.0016,-0.0004,-0.0013,0.0058,0.0075,0.0103,0.0161,0.0176,0.0201,0.0209,0.0321,0.0345,0.0421,0.0473,0.0493,0.0489,0.0569,0.068,0.0677,0.0674,0.0503,0.0487,0.0474,0,0,0,0,0,-0.0021,-0.0048,-0.0015,-0.0003,0.0065,0.0102,0.0111,0.0169,0.0199,0.0191,0.0251,0.0342,0.0472,0.0476,0.0501,0.05,0.0681,0.0678,0.0675,0.051,0.049,0.0474,0,0,0,0,0,0,-0.0114,-0.0038,-0.0001,-0.0003,0.0046,0.0118,0.0109,0.0157,0.0195,0.0201,0.0313,0.0339,0.0379,0.0455,0.0458,0.0526,0.0596,0.0598,0.0463,0.0446,0.0431,0.0442,0.0576,0,0,0,0,0,-0.0137,-0.0136,-0.0052,-0.0059,-0.0039,0.0033,0.0051,0.0096,0.0149,0.0167,0.0247,0.0324,0.0381,0.0423,0.0488,0.0519,0.0602,0.0538,0.0523,0.051,0.0535,0.0606,0.06,0.0662,0.0662,0.0662,0,0,-0.0175,-0.0134,-0.0133,-0.0079,-0.0041,-0.0029,0.0047,0.0065,0.0077,0.0189,0.0211,0.0276,0.0376,0.0403,0.0431,0.0469,0.053,0.0506,0.0494,0.0527,0.0602,0.0596,0.0591,0.066,0.066,0.0661,0,0,-0.0246,-0.0215,-0.0229,-0.0197,-0.0139,-0.0094,-0.009,-0.0018,0.0012,0.0036,0.0118,0.0167,0.0259,0.0324,0.0369,0.0316,0.0446,0.0345,0.0289,0.0355,0.0351,0.0349,0.0418,0.0423,0.0342,0.0342,0.0342,0,-0.0297,-0.0286,-0.0232,-0.0233,-0.021,-0.0128,-0.013,-0.0102,-0.0025,0.0005,0.0023,0.0151,0.0222,0.028,0.0255,0.0287,0.035,0.034,0.0336,0.0335,0.0336,0.0408,0.0416,0.0333,0.0334,0.0335,0.0336,0,-0.0354,-0.0353,-0.0367,-0.0333,-0.0312,-0.0307,-0.024,-0.0219,-0.0175,-0.012,-0.0061,0.0015,0.0108,0.0122,0.0171,0.0216,0.0266,0.03,0.0376,0.0319,0.0398,0.041,0.032,0.0323,0.0326,0.0328,0,0,-0.0436,-0.041,-0.0412,-0.0405,-0.0356,-0.034,-0.0337,-0.0281,-0.0253,-0.0203,-0.0157,-0.0094,-0.0026,0.003,0.0103,0.0154,0.0183,0.0221,0.0228,0.0283,0.0338,0.0355,0.0371,0.0214,0.0216,0.0217,0.0381,0,-0.0487,-0.0514,-0.0478,-0.0499,-0.05,-0.0432,-0.0425,-0.0372,-0.0314,-0.0258,-0.0175,-0.0107,-0.0068,-0.0021,0.0026,0.0167,0.0212,0.0137,0.0395,0.0403,0.042,0.0384,0.0428,0.0578,0.0394,0.0396,0.0397,0,-0.0533,-0.0543,-0.0573,-0.0552,-0.0544,-0.0547,-0.049,-0.0469,-0.0379,-0.0329,-0.0254,-0.0165,-0.007,-0.0042,0.0148,0.0101,0.0204,0.0294,0.0303,0.0403,0.0443,0.0613,0.0607,0.0707,0.0417,0.0415,0.0414,0,-0.0591,-0.0599,-0.0624,-0.062,-0.0592,-0.0588,-0.0567,-0.0491,-0.0435,-0.0358,-0.0285,-0.0187,-0.0081,0.0026,0.0204,0.0187,0.0415,0.042,0.0529,0.0532,0.0668,0.068,0.0793,0.0539,0.0539,0.0538,0.0538,0,-0.0642,-0.0659,-0.0656,-0.0671,-0.0686,-0.0645,-0.0623,-0.0585,-0.0481,-0.0365,-0.0315,-0.0181,-0.0053,0.01,0.0208,0.0413,0.0422,0.0532,0.0578,0.0602,0.0606,0.0781,0.0812,0.0545,0.0543,0.0542,0.0541,0,-0.0693,-0.0692,-0.0721,-0.0718,-0.0716,-0.0728,-0.0654,-0.0577,-0.0517,-0.0359,-0.0317,-0.0141,0.0051,0.0169,0.0386,0.0464,0.07,0.0685,0.0699,0.0741,0.0904,0.0922,0.1102,0.1209,0.0831,0.0833,0.0834,0,-0.0717,-0.0742,-0.0766,-0.0756,-0.0754,-0.0749,-0.0678,-0.061,-0.048,-0.0286,-0.0155,0.0016,0.0237,0.0493,0.0585,0.0741,0.0812,0.0887,0.0848,0.0928,0.0983,0.0972,0.1049,0.096,0.0962,0.0964,0.0965,0,-0.0757,-0.0768,-0.0786,-0.0763,-0.0716,-0.0652,-0.0547,-0.0466,-0.0293,-0.0151,0.0148,0.0314,0.0527,0.0717,0.0815,0.0908,0.0964,0.0927,0.1027,0.1107,0.1092,0.1212,0.0831,0.098,0.0979,0.0978,0.0977,0.0976,-0.076,-0.0773,-0.0757,-0.073,-0.0664,-0.0501,-0.0428,-0.0259,-0.0069,0.0204,0.0409,0.0699,0.0906,0.1045,0.1074,0.1154,0.1119,0.1231,0.1254,0.124,0.1316,0.0953,0.1128,0.1128,0.1127,0.1127,0.1126,0,-0.0671,-0.0681,-0.0684,-0.0613,-0.0498,-0.0472,-0.026,-0.0153,0.008,0.0371,0.0666,0.1151,0.1284,0.1348,0.1414,0.1487,0.1507,0.1539,0.1556,0.1628,0.1344,0.132,0.1524,0.1524,0.1524,0.1523,0.1523,0.1523,-0.0598,-0.0565,-0.0572,-0.0427,-0.0379,-0.0176,-0.0053,0.0072,0.0269,0.0683,0.1026,0.135,0.1614,0.1669,0.1737,0.1766,0.1906,0.1845,0.1934,0.1736,0.1709,0.1683,0.167,0.1943,0.1943,0.2236,0.2238,0.224]}],[{"header":{"parameterUnit":"m.s-1","parameterCategory":2,"la1":30.2991,"la2":30.254,"lo1":-89.0895,"lo2":-89.0444,"dy":0.0017,"dx":0.0017,"nx":28,"ny":28,"refTime":"2023-10-19T03:00:00:Z","depth":"2","parameterNumber":2,"parameterNumberName":"U-component_of_CURRENTS"},"data":[0,0,0,0,0,0,0,0,0,0,0,0,0,0,0,0,0,0,0,0,0,0,0,0,0,0,0,0,0,0,0,0,0,0,0,0,0,0,0,0,0,0,0,0,0,0,0,0,0,0,0,0,0,0,0,0,0,0,-0.2276,-0.2276,0,-0.2325,-0.2326,-0.2326,-0.2368,-0.2369,-0.2369,-0.237,-0.2492,-0.2495,-0.2498,0,0,0,0,0,0,0,0,0,0,0,0,0,-0.2195,-0.2196,-0.2276,-0.2276,-0.2277,-0.2325,-0.2326,-0.2326,-0.2368,-0.2369,-0.2369,-0.237,-0.2491,-0.2495,-0.2498,0,0,0,0,0,0,0,0,0,0,0,0,0,-0.2236,-0.2197,-0.2275,-0.2304,-0.2307,-0.2325,-0.2326,-0.2326,-0.2368,-0.2369,-0.237,-0.237,-0.249,-0.2494,-0.2499,-0.251,0,0,-0.2511,-0.2513,0,0,0,0,0,0,0,0,-0.2233,-0.2239,-0.2299,-0.2302,-0.2305,-0.2341,-0.2342,-0.2392,-0.2368,-0.2345,-0.237,-0.2371,-0.2448,-0.2456,-0.2462,-0.2516,-0.2521,-0.2512,-0.2514,-0.2516,-0.2517,0,0,0,0,0,0,0,-0.223,-0.2237,-0.2295,-0.2299,-0.2303,-0.2306,-0.2313,-0.2351,-0.2393,-0.2347,-0.235,-0.2355,-0.245,-0.2458,-0.2466,-0.2523,-0.2512,-0.2515,-0.2518,-0.252,-0.2526,-0.2524,0,0,0,0,0,0,-0.2225,-0.2234,-0.2294,-0.2297,-0.227,-0.2307,-0.2315,-0.2329,-0.2391,-0.2401,-0.2355,-0.2357,-0.2451,-0.2461,-0.247,-0.248,-0.2516,-0.252,-0.2523,-0.2528,-0.2525,-0.2523,0,0,0,0,0,0,-0.2223,-0.223,-0.2292,-0.2266,-0.2274,-0.2308,-0.2323,-0.233,-0.2343,-0.2396,-0.2408,-0.2362,-0.2451,-0.2464,-0.2494,-0.2486,-0.2522,-0.2526,-0.2531,-0.2527,-0.2524,-0.2506,0,0,0,0,0,0,-0.2221,-0.223,-0.2238,-0.2266,-0.2275,-0.2299,-0.2323,-0.233,-0.2345,-0.2348,-0.2407,-0.2418,-0.2453,-0.2487,-0.2498,-0.2492,-0.2529,-0.2534,-0.2529,-0.2525,-0.2509,-0.2502,-0.2496,0,0,0,0,0,-0.2218,-0.2232,-0.2238,-0.2245,-0.2286,-0.2299,-0.2304,-0.233,-0.2344,-0.2345,-0.2377,-0.2417,-0.2465,-0.249,-0.2503,-0.2498,-0.2536,-0.2531,-0.2526,-0.2512,-0.2503,-0.2496,0,0,0,0,0,0,-0.2198,-0.2238,-0.2246,-0.227,-0.2279,-0.2306,-0.2317,-0.2327,-0.2352,-0.2364,-0.2409,-0.2422,-0.2437,-0.2458,-0.2483,-0.2476,-0.2498,-0.2495,-0.2483,-0.2475,-0.2469,-0.2471,-0.2533,0,0,0,0,0,-0.2196,-0.2221,-0.2243,-0.2259,-0.2267,-0.2288,-0.2298,-0.2314,-0.2339,-0.2351,-0.2385,-0.2409,-0.2421,-0.2443,-0.2459,-0.2477,-0.2468,-0.2468,-0.2461,-0.2456,-0.246,-0.2443,-0.2437,-0.2505,-0.2505,-0.2506,0,0,-0.2194,-0.2217,-0.2232,-0.2257,-0.2272,-0.2281,-0.2297,-0.2314,-0.232,-0.2362,-0.2384,-0.2395,-0.2416,-0.2424,-0.2431,-0.2449,-0.2419,-0.2449,-0.2445,-0.2452,-0.2437,-0.2431,-0.2426,-0.2502,-0.2502,-0.2503,0,0,-0.2189,-0.2221,-0.223,-0.2244,-0.2264,-0.2279,-0.2281,-0.2305,-0.2314,-0.2331,-0.2346,-0.2348,-0.2387,-0.2389,-0.2397,-0.2359,-0.2379,-0.2356,-0.2343,-0.2327,-0.2322,-0.2318,-0.2257,-0.2248,-0.236,-0.236,-0.236,0,-0.2183,-0.2199,-0.2231,-0.2238,-0.2251,-0.2277,-0.228,-0.2293,-0.2319,-0.2323,-0.2335,-0.2348,-0.2367,-0.2364,-0.2343,-0.2349,-0.233,-0.2385,-0.2322,-0.2318,-0.2315,-0.2253,-0.2243,-0.2358,-0.2358,-0.2358,-0.2359,0,-0.2171,-0.2192,-0.22,-0.2224,-0.2239,-0.225,-0.2272,-0.2283,-0.2299,-0.2308,-0.2307,-0.2317,-0.2324,-0.2315,-0.2328,-0.2299,-0.2287,-0.2315,-0.2356,-0.2308,-0.2244,-0.2234,-0.2356,-0.2356,-0.2357,-0.2357,0,0,-0.2128,-0.2184,-0.2181,-0.2199,-0.2236,-0.2247,-0.2262,-0.2273,-0.2283,-0.2292,-0.229,-0.2285,-0.2288,-0.2292,-0.2294,-0.2278,-0.2217,-0.2288,-0.2287,-0.2246,-0.2148,-0.2036,-0.2015,-0.2248,-0.2247,-0.2246,-0.21,0,-0.2102,-0.2121,-0.2152,-0.2172,-0.2188,-0.2227,-0.2241,-0.226,-0.2276,-0.2282,-0.2277,-0.228,-0.2281,-0.2283,-0.2263,-0.224,-0.2197,-0.2252,-0.2183,-0.2179,-0.2105,-0.2003,-0.1884,-0.1736,-0.209,-0.2089,-0.2087,0,-0.206,-0.2086,-0.2101,-0.2162,-0.2171,-0.2184,-0.2219,-0.2235,-0.2254,-0.2266,-0.2267,-0.2274,-0.2243,-0.2256,-0.2182,-0.2222,-0.2173,-0.2148,-0.2143,-0.2046,-0.2051,-0.1846,-0.1705,-0.2071,-0.2073,-0.2074,-0.2075,0,-0.2001,-0.2048,-0.2063,-0.2081,-0.2147,-0.2157,-0.2189,-0.2221,-0.2239,-0.2253,-0.2264,-0.2243,-0.2224,-0.2185,-0.2119,-0.2158,-0.2024,-0.2075,-0.1916,-0.1906,-0.1793,-0.1775,-0.2003,-0.2003,-0.2004,-0.2004,-0.2004,0,-0.196,-0.197,-0.2039,-0.2049,-0.2066,-0.2127,-0.2146,-0.2174,-0.2213,-0.2225,-0.2248,-0.2234,-0.2211,-0.2142,-0.2094,-0.1944,-0.1995,-0.1877,-0.1856,-0.1774,-0.1757,-0.2059,-0.2067,-0.1998,-0.2,-0.2001,-0.2002,0,-0.1888,-0.1935,-0.1958,-0.2024,-0.204,-0.2052,-0.2123,-0.2128,-0.2188,-0.2202,-0.2208,-0.2205,-0.2099,-0.2034,-0.1938,-0.1885,-0.178,-0.1714,-0.1588,-0.1554,-0.1679,-0.1688,-0.1525,-0.152,-0.1516,-0.1512,-0.1509,0,-0.1851,-0.1856,-0.1919,-0.1918,-0.1942,-0.1981,-0.1991,-0.2085,-0.2111,-0.2174,-0.2163,-0.2087,-0.1997,-0.1787,-0.1648,-0.1482,-0.16,-0.1317,-0.1371,-0.1631,-0.1628,-0.1644,-0.1658,-0.1195,-0.119,-0.1185,-0.1182,0,-0.1771,-0.1794,-0.1809,-0.1807,-0.1818,-0.1865,-0.1911,-0.1952,-0.2058,-0.2083,-0.2073,-0.2009,-0.1771,-0.1527,-0.1307,-0.1219,-0.134,-0.122,-0.1511,-0.1341,-0.1309,-0.1311,-0.1337,-0.1142,-0.1146,-0.1149,-0.1151,-0.1153,-0.1693,-0.1672,-0.1676,-0.1668,-0.1688,-0.1736,-0.1731,-0.1809,-0.1862,-0.1857,-0.1928,-0.1748,-0.1637,-0.1194,-0.1054,-0.0894,-0.1002,-0.0991,-0.1009,-0.1031,-0.1025,-0.0989,-0.0757,-0.0758,-0.076,-0.0761,-0.0762,0,-0.1577,-0.1548,-0.1526,-0.1511,-0.1482,-0.156,-0.1634,-0.1598,-0.1604,-0.1626,-0.1592,-0.1368,-0.1154,-0.0982,-0.0663,-0.0597,-0.0633,-0.0579,-0.0663,-0.07,-0.0733,-0.072,-0.0366,-0.0365,-0.0364,-0.0363,0,0,-0.1507,-0.1431,-0.1413,-0.1307,-0.1295,-0.1242,-0.1274,-0.1255,-0.1252,-0.1175,-0.108,-0.1138,-0.1027,-0.0775,-0.0668,-0.0463,-0.0596,-0.0421,-0.0737,-0.0878,-0.0912,-0.0955,-0.0972,0,0,0,0,0]},{"header":{"parameterUnit":"m.s-1","parameterCategory":2,"la1":30.2991,"la2":30.254,"lo1":-89.0895,"lo2":-89.0444,"dy":0.0017,"dx":0.0017,"nx":28,"ny":28,"refTime":"2023-10-19T03:00:00:Z","depth":"2","parameterNumber":3,"parameterNumberName":"V-component_of_CURRENTS"},"data":[0,0,0,0,0,0,0,0,0,0,0,0,0,0,0,0,0,0,0,0,0,0,0,0,0,0,0,0,0,0,0,0,0,0,0,0,0,0,0,0,0,0,0,0,0,0,0,0,0,0,0,0,0,0,0,0,0,0,-0.0456,-0.0456,0,-0.0403,-0.0402,-0.0402,-0.0348,-0.0347,-0.0347,-0.0346,-0.0158,-0.0153,-0.0149,0,0,0,0,0,0,0,0,0,0,0,0,0,-0.0485,-0.0485,-0.0456,-0.0456,-0.0455,-0.0403,-0.0402,-0.0401,-0.0348,-0.0347,-0.0347,-0.0346,-0.0159,-0.0154,-0.0149,0,0,0,0,0,0,0,0,0,0,0,0,0,-0.0455,-0.0485,-0.0456,-0.0424,-0.0421,-0.0403,-0.0402,-0.0401,-0.0348,-0.0347,-0.0346,-0.0346,-0.0161,-0.0154,-0.0148,-0.0121,0,0,-0.0127,-0.0124,0,0,0,0,0,0,0,0,-0.0456,-0.0453,-0.0429,-0.0426,-0.0422,-0.0383,-0.0344,-0.0302,-0.0348,-0.0373,-0.0346,-0.0345,-0.0223,-0.0211,-0.0201,-0.0113,-0.0105,-0.0126,-0.0122,-0.0119,-0.0117,0,0,0,0,0,0,0,-0.0459,-0.0455,-0.0433,-0.0429,-0.0425,-0.0403,-0.0398,-0.0336,-0.0299,-0.0371,-0.0368,-0.0365,-0.0219,-0.0208,-0.0196,-0.0102,-0.0127,-0.0121,-0.0116,-0.0114,0.008,0.0081,0,0,0,0,0,0,-0.0472,-0.0457,-0.0435,-0.0431,-0.044,-0.0404,-0.0398,-0.0395,-0.0302,-0.0289,-0.0366,-0.0363,-0.022,-0.0204,-0.0189,-0.0117,-0.0119,-0.0113,-0.0109,0.0079,0.008,0.0082,0,0,0,0,0,0,-0.0473,-0.047,-0.0437,-0.0445,-0.0439,-0.0405,-0.0401,-0.0394,-0.0383,-0.0301,-0.0284,-0.0363,-0.0219,-0.0199,-0.0122,-0.011,-0.011,-0.0104,0.0078,0.0079,0.0081,0.0006,0,0,0,0,0,0,-0.0474,-0.0471,-0.0472,-0.0446,-0.044,-0.0424,-0.0402,-0.0394,-0.0384,-0.038,-0.0292,-0.0274,-0.0217,-0.0132,-0.0115,-0.0101,-0.0098,0.0076,0.0079,0.008,0.0007,0.0005,0.0003,0,0,0,0,0,-0.0475,-0.0475,-0.0473,-0.047,-0.0443,-0.0424,-0.0418,-0.0389,-0.0385,-0.0378,-0.0313,-0.0277,-0.0107,-0.0126,-0.0106,-0.0089,0.0075,0.0078,0.008,0.0008,0.0005,0.0003,0,0,0,0,0,0,-0.0487,-0.0469,-0.0466,-0.046,-0.0446,-0.0416,-0.0406,-0.0398,-0.0347,-0.0335,-0.0264,-0.024,-0.0171,-0.0116,-0.014,-0.0025,-0.0009,-0.0003,-0.0071,-0.0072,-0.0075,-0.0093,-0.0093,0,0,0,0,0,-0.0494,-0.0488,-0.0471,-0.0468,-0.0461,-0.044,-0.043,-0.0413,-0.0369,-0.0348,-0.0293,-0.0219,-0.0146,-0.0101,-0.0033,0.0029,0.0071,0.0056,0.0053,0.0051,0.0052,0.0114,0.0117,0.0089,0.0089,0.0089,0,0,-0.0498,-0.0488,-0.0485,-0.047,-0.0454,-0.0444,-0.043,-0.0415,-0.04,-0.0332,-0.0286,-0.0228,-0.0132,-0.0063,-0.0026,-0.0014,0.0082,0.0054,0.0051,0.0054,0.0117,0.0119,0.0121,0.0091,0.0091,0.0091,0,0,-0.0506,-0.0495,-0.0495,-0.0483,-0.0466,-0.0448,-0.045,-0.0424,-0.0402,-0.0353,-0.0301,-0.0239,-0.0133,-0.007,-0.0019,0.001,0.0062,0.0034,0.0017,0.0076,0.0078,0.0081,0.0131,0.0139,0.004,0.004,0.004,0,-0.0515,-0.0516,-0.0493,-0.0489,-0.0483,-0.0455,-0.0456,-0.0425,-0.0379,-0.0358,-0.0339,-0.0203,-0.0134,-0.0046,-0.0034,0.0003,0.0042,0.0012,0.007,0.0074,0.0077,0.0129,0.0138,0.0036,0.0037,0.0037,0.0037,0,-0.0524,-0.0524,-0.0521,-0.0508,-0.0493,-0.0488,-0.0451,-0.0431,-0.0405,-0.0373,-0.03,-0.0213,-0.0133,-0.01,-0.0052,0.001,0.003,0.0049,0.0066,0.0075,0.013,0.014,0.0032,0.0033,0.0034,0.0035,0,0,-0.0552,-0.0535,-0.0536,-0.0541,-0.0507,-0.0501,-0.0465,-0.0432,-0.0413,-0.0353,-0.0321,-0.0207,-0.0178,-0.012,-0.0062,-0.0005,0.005,0.0029,0.0034,0.006,0.0177,0.0197,0.0211,0.0074,0.0076,0.0077,0.0201,0,-0.0574,-0.0587,-0.0562,-0.0567,-0.0573,-0.053,-0.0502,-0.0461,-0.0413,-0.0369,-0.0281,-0.0219,-0.0178,-0.0143,-0.0082,0.0021,0.0076,0.0014,0.0182,0.0187,0.0188,0.0224,0.0192,0.0301,0.0212,0.0214,0.0215,0,-0.0598,-0.0608,-0.0624,-0.0613,-0.0609,-0.0599,-0.0561,-0.0531,-0.0448,-0.0408,-0.0337,-0.0269,-0.0171,-0.0144,0.0025,-0.0017,0.0071,0.0147,0.0154,0.0207,0.0228,0.0283,0.0325,0.0234,0.0232,0.0231,0.023,0,-0.0651,-0.0651,-0.0672,-0.0667,-0.0642,-0.0637,-0.0618,-0.0551,-0.0521,-0.0437,-0.0397,-0.0285,-0.0207,-0.0096,0.0059,0.0046,0.0243,0.0246,0.0348,0.035,0.0376,0.0377,0.036,0.036,0.036,0.036,0.0359,0,-0.0692,-0.0707,-0.0703,-0.0716,-0.0737,-0.0693,-0.069,-0.0648,-0.0577,-0.0531,-0.0428,-0.0347,-0.0188,-0.0054,0.0058,0.0242,0.0246,0.0356,0.039,0.035,0.0347,0.0331,0.0326,0.0364,0.0363,0.0362,0.0362,0,-0.0742,-0.0738,-0.0768,-0.0764,-0.0766,-0.0782,-0.0754,-0.0759,-0.0658,-0.0593,-0.0563,-0.0377,-0.0189,-0.0035,0.0175,0.0261,0.0415,0.0476,0.0412,0.0437,0.048,0.047,0.0602,0.0604,0.0605,0.0607,0.0608,0,-0.0767,-0.0789,-0.0819,-0.0857,-0.0861,-0.0875,-0.0902,-0.0825,-0.0829,-0.0596,-0.059,-0.0351,-0.0182,0.0127,0.0304,0.0501,0.0492,0.0575,0.0546,0.0488,0.0508,0.0496,0.0484,0.0552,0.0552,0.0553,0.0553,0,-0.0819,-0.083,-0.086,-0.0945,-0.0995,-0.1031,-0.1055,-0.1051,-0.0934,-0.0838,-0.063,-0.0434,-0.0071,0.0172,0.0427,0.0532,0.0533,0.0592,0.0575,0.0486,0.0449,0.0465,0.0454,0.0557,0.0557,0.0557,0.0556,0.0556,-0.0859,-0.091,-0.0965,-0.1032,-0.1098,-0.1167,-0.1174,-0.1184,-0.1133,-0.0925,-0.0742,-0.0411,-0.0131,0.026,0.0443,0.0625,0.0629,0.0645,0.0641,0.0636,0.0599,0.0566,0.0689,0.069,0.069,0.069,0.069,0,-0.0942,-0.0988,-0.1056,-0.1137,-0.1204,-0.1222,-0.1263,-0.1229,-0.1168,-0.095,-0.0742,-0.0417,-0.0115,0.0218,0.0526,0.0677,0.0654,0.0684,0.062,0.0616,0.0612,0.057,0.0654,0.0655,0.0655,0.0655,0,0,-0.1001,-0.1083,-0.111,-0.1204,-0.1251,-0.1313,-0.1321,-0.1253,-0.1104,-0.0869,-0.063,-0.043,-0.0016,0.0134,0.0337,0.0542,0.0534,0.0548,0.0561,0.0458,0.0452,0.0577,0.0507,0,0,0,0,0]}],[{"header":{"parameterUnit":"m.s-1","parameterCategory":2,"la1":30.2991,"la2":30.254,"lo1":-89.0895,"lo2":-89.0444,"dy":0.0017,"dx":0.0017,"nx":28,"ny":28,"refTime":"2023-10-19T03:00:00:Z","depth":"4","parameterNumber":2,"parameterNumberName":"U-component_of_CURRENTS"},"data":[0,0,0,0,0,0,0,0,0,0,0,0,0,0,0,0,0,0,0,0,0,0,0,0,0,0,0,0,0,0,0,0,0,0,0,0,0,0,0,0,0,0,0,0,0,0,0,0,0,0,0,0,0,0,0,0,0,0,-0.1579,-0.158,0,-0.164,-0.1641,-0.1641,-0.1682,-0.1683,-0.1683,-0.1683,-0.1724,-0.1725,-0.1725,0,0,0,0,0,0,0,0,0,0,0,0,0,-0.1472,-0.1473,-0.1579,-0.158,-0.1581,-0.164,-0.1641,-0.1642,-0.1682,-0.1683,-0.1683,-0.1684,-0.1724,-0.1724,-0.1725,0,0,0,0,0,0,0,0,0,0,0,0,0,-0.1523,-0.1474,-0.1579,-0.1609,-0.1612,-0.164,-0.1641,-0.1642,-0.1682,-0.1683,-0.1683,-0.1684,-0.1723,-0.1724,-0.1725,-0.1722,0,0,-0.1729,-0.1729,0,0,0,0,0,0,0,0,-0.152,-0.1527,-0.1604,-0.1607,-0.1611,-0.1655,-0.1618,-0.1668,-0.1682,-0.1655,-0.1683,-0.1684,-0.1699,-0.1702,-0.1712,-0.1724,-0.1726,-0.1729,-0.173,-0.173,-0.1731,0,0,0,0,0,0,0,-0.1517,-0.1525,-0.1603,-0.1604,-0.1609,-0.161,-0.1618,-0.1627,-0.1672,-0.1657,-0.1661,-0.1668,-0.1701,-0.171,-0.1713,-0.1726,-0.1729,-0.173,-0.1731,-0.1731,-0.1761,-0.1762,0,0,0,0,0,0,-0.1512,-0.1522,-0.1601,-0.1605,-0.1567,-0.1612,-0.1621,-0.1639,-0.1673,-0.1679,-0.1668,-0.167,-0.1708,-0.1712,-0.1714,-0.1772,-0.173,-0.1731,-0.1732,-0.1761,-0.1761,-0.1762,0,0,0,0,0,0,-0.1509,-0.1519,-0.1598,-0.1564,-0.1574,-0.1613,-0.1634,-0.164,-0.1679,-0.1681,-0.1687,-0.1702,-0.1709,-0.1713,-0.1742,-0.1771,-0.1732,-0.1733,-0.1761,-0.1761,-0.1762,-0.1848,0,0,0,0,0,0,-0.1506,-0.1518,-0.1542,-0.1564,-0.1576,-0.1629,-0.1634,-0.1641,-0.1681,-0.1685,-0.1712,-0.1715,-0.171,-0.1741,-0.1743,-0.1772,-0.1734,-0.1761,-0.1761,-0.1761,-0.1845,-0.1851,-0.1857,0,0,0,0,0,-0.1502,-0.1528,-0.1543,-0.1553,-0.1604,-0.163,-0.1637,-0.1665,-0.1683,-0.1701,-0.1719,-0.1715,-0.1743,-0.1743,-0.1745,-0.1775,-0.1761,-0.1761,-0.1761,-0.1843,-0.185,-0.1856,0,0,0,0,0,0,-0.1496,-0.1535,-0.1552,-0.159,-0.1616,-0.1638,-0.1666,-0.1682,-0.1713,-0.1728,-0.1728,-0.1732,-0.1767,-0.1751,-0.175,-0.1778,-0.1747,-0.1748,-0.1808,-0.1815,-0.182,-0.1807,-0.1735,0,0,0,0,0,-0.1505,-0.1539,-0.1566,-0.1602,-0.1619,-0.1649,-0.1669,-0.1688,-0.1712,-0.1729,-0.1744,-0.1753,-0.1765,-0.1776,-0.1781,-0.1803,-0.1766,-0.1817,-0.1823,-0.1828,-0.1816,-0.1798,-0.1802,-0.1763,-0.1763,-0.1763,0,0,-0.1516,-0.1541,-0.1563,-0.1604,-0.1632,-0.166,-0.1664,-0.1705,-0.1732,-0.1726,-0.1775,-0.1783,-0.1775,-0.1802,-0.1815,-0.1798,-0.1816,-0.1828,-0.1833,-0.1818,-0.1799,-0.1803,-0.1806,-0.1763,-0.1763,-0.1763,0,0,-0.1537,-0.1577,-0.1606,-0.1631,-0.1674,-0.169,-0.1708,-0.1744,-0.1767,-0.1806,-0.1808,-0.183,-0.1852,-0.1849,-0.185,-0.1885,-0.1851,-0.1889,-0.1912,-0.1896,-0.19,-0.1902,-0.1853,-0.185,-0.1889,-0.1889,-0.1889,0,-0.1553,-0.1587,-0.1618,-0.1647,-0.1671,-0.1707,-0.1735,-0.1764,-0.1804,-0.1818,-0.1831,-0.1863,-0.1869,-0.1888,-0.1902,-0.1901,-0.1872,-0.1896,-0.1906,-0.1908,-0.1909,-0.1857,-0.1853,-0.1894,-0.1893,-0.1893,-0.1892,0,-0.1578,-0.1619,-0.164,-0.1689,-0.1719,-0.1753,-0.1788,-0.1824,-0.1858,-0.1875,-0.1914,-0.1924,-0.1932,-0.1946,-0.1941,-0.1953,-0.1923,-0.1923,-0.1895,-0.1918,-0.1862,-0.1856,-0.19,-0.1898,-0.1897,-0.1896,0,0,-0.1568,-0.1645,-0.1651,-0.1682,-0.1743,-0.1766,-0.1818,-0.1855,-0.1883,-0.1927,-0.1948,-0.1984,-0.1988,-0.1985,-0.1986,-0.1979,-0.1972,-0.1959,-0.1956,-0.192,-0.1913,-0.1779,-0.1759,-0.1983,-0.1983,-0.1982,-0.1868,0,-0.1577,-0.163,-0.1666,-0.1724,-0.1755,-0.1804,-0.1843,-0.1886,-0.1921,-0.1949,-0.1968,-0.1992,-0.2003,-0.2014,-0.2013,-0.1981,-0.1961,-0.2,-0.1885,-0.188,-0.1768,-0.175,-0.1981,-0.1864,-0.1862,-0.1861,-0.186,0,-0.1568,-0.1609,-0.1664,-0.1738,-0.1756,-0.1798,-0.1857,-0.1897,-0.1943,-0.1967,-0.1996,-0.2007,-0.2011,-0.2017,-0.1971,-0.1998,-0.1957,-0.193,-0.1925,-0.1761,-0.1735,-0.1834,-0.1849,-0.185,-0.1851,-0.1852,-0.1852,0,-0.1516,-0.1599,-0.1643,-0.167,-0.176,-0.1796,-0.1844,-0.1902,-0.1925,-0.1975,-0.1982,-0.2003,-0.1991,-0.1972,-0.1921,-0.195,-0.1846,-0.1875,-0.1708,-0.1698,-0.1819,-0.1817,-0.1828,-0.1828,-0.1829,-0.1829,-0.1829,0,-0.1484,-0.1522,-0.1629,-0.1652,-0.1699,-0.1778,-0.1822,-0.187,-0.1921,-0.1922,-0.1985,-0.1965,-0.1981,-0.1929,-0.1902,-0.1762,-0.1824,-0.1687,-0.1655,-0.1855,-0.1859,-0.1814,-0.1814,-0.1825,-0.1826,-0.1826,-0.1827,0,-0.141,-0.1484,-0.1539,-0.1645,-0.1676,-0.171,-0.1797,-0.1808,-0.1885,-0.1882,-0.1893,-0.1915,-0.1838,-0.1818,-0.175,-0.1696,-0.161,-0.1547,-0.1724,-0.1709,-0.1479,-0.1485,-0.1349,-0.1343,-0.1338,-0.1334,-0.1331,0,-0.1373,-0.1399,-0.1512,-0.1528,-0.1578,-0.1643,-0.1662,-0.1766,-0.1766,-0.1826,-0.1788,-0.1756,-0.1745,-0.1528,-0.1544,-0.1444,-0.1436,-0.1386,-0.1468,-0.1445,-0.1429,-0.1442,-0.1454,-0.1323,-0.1322,-0.1321,-0.1319,0,-0.1293,-0.1349,-0.1387,-0.1421,-0.1455,-0.1492,-0.1536,-0.1528,-0.1616,-0.17,-0.1631,-0.1588,-0.1478,-0.1417,-0.1326,-0.1279,-0.1426,-0.1336,-0.1347,-0.1424,-0.1412,-0.1404,-0.1421,-0.1302,-0.1305,-0.1306,-0.1307,0,-0.1223,-0.1221,-0.1267,-0.1285,-0.1319,-0.131,-0.137,-0.1361,-0.1389,-0.1472,-0.1436,-0.1421,-0.1449,-0.1326,-0.1258,-0.1176,-0.1175,-0.1165,-0.1186,-0.1205,-0.1211,-0.1179,-0.0944,0,0,0,0,0,-0.114,-0.111,-0.1114,-0.1126,-0.1157,-0.1182,-0.1249,-0.1312,-0.1403,-0.1305,-0.1376,-0.1282,-0.1188,-0.1188,-0.1066,-0.1174,-0.1168,-0.103,-0.1167,-0.1208,-0.1228,-0.1249,0,0,0,0,0,0,-0.1071,-0.1069,-0.1063,-0.0985,-0.0964,-0.0985,-0.1028,-0.1106,-0.1071,-0.1172,-0.1113,-0.1201,-0.1107,-0.1213,-0.1035,-0.103,-0.109,-0.1036,-0.1032,-0.1197,-0.1215,-0.1231,-0.126,0,0,0,0,0]},{"header":{"parameterUnit":"m.s-1","parameterCategory":2,"la1":30.2991,"la2":30.254,"lo1":-89.0895,"lo2":-89.0444,"dy":0.0017,"dx":0.0017,"nx":28,"ny":28,"refTime":"2023-10-19T03:00:00:Z","depth":"4","parameterNumber":3,"parameterNumberName":"V-component_of_CURRENTS"},"data":[0,0,0,0,0,0,0,0,0,0,0,0,0,0,0,0,0,0,0,0,0,0,0,0,0,0,0,0,0,0,0,0,0,0,0,0,0,0,0,0,0,0,0,0,0,0,0,0,0,0,0,0,0,0,0,0,0,0,-0.0373,-0.0373,0,-0.0354,-0.0354,-0.0353,-0.0344,-0.0344,-0.0345,-0.0345,-0.0319,-0.0319,-0.0318,0,0,0,0,0,0,0,0,0,0,0,0,0,-0.0376,-0.0376,-0.0373,-0.0373,-0.0373,-0.0354,-0.0354,-0.0353,-0.0344,-0.0344,-0.0345,-0.0345,-0.032,-0.0319,-0.0318,0,0,0,0,0,0,0,0,0,0,0,0,0,-0.0367,-0.0376,-0.0373,-0.0367,-0.0367,-0.0354,-0.0354,-0.0353,-0.0344,-0.0344,-0.0345,-0.0345,-0.032,-0.0319,-0.0318,-0.0307,0,0,-0.0314,-0.0314,0,0,0,0,0,0,0,0,-0.0367,-0.0366,-0.0368,-0.0368,-0.0367,-0.0353,-0.0346,-0.0338,-0.0344,-0.0351,-0.0345,-0.0345,-0.0331,-0.0329,-0.0323,-0.0306,-0.0305,-0.0314,-0.0313,-0.0313,-0.0313,0,0,0,0,0,0,0,-0.0368,-0.0367,-0.0365,-0.0368,-0.0367,-0.0356,-0.0355,-0.0344,-0.0339,-0.0351,-0.035,-0.035,-0.033,-0.0324,-0.0322,-0.0304,-0.0314,-0.0313,-0.0312,-0.0312,-0.0246,-0.0245,0,0,0,0,0,0,-0.0374,-0.0368,-0.0365,-0.0364,-0.0369,-0.0356,-0.0355,-0.0356,-0.0339,-0.0338,-0.035,-0.035,-0.0326,-0.0324,-0.0321,-0.0283,-0.0313,-0.0312,-0.0311,-0.0247,-0.0246,-0.0244,0,0,0,0,0,0,-0.0374,-0.0374,-0.0366,-0.0366,-0.0365,-0.0357,-0.0357,-0.0356,-0.0357,-0.0339,-0.0337,-0.0354,-0.0326,-0.0323,-0.0302,-0.0283,-0.0311,-0.031,-0.0248,-0.0246,-0.0245,-0.0222,0,0,0,0,0,0,-0.0374,-0.0374,-0.0379,-0.0367,-0.0365,-0.0363,-0.0357,-0.0355,-0.0357,-0.0357,-0.0342,-0.0339,-0.0326,-0.0304,-0.0301,-0.0282,-0.0309,-0.0249,-0.0247,-0.0246,-0.0224,-0.0219,-0.0216,0,0,0,0,0,-0.0374,-0.038,-0.038,-0.038,-0.0372,-0.0363,-0.0361,-0.0355,-0.0357,-0.0357,-0.0337,-0.034,-0.0289,-0.0302,-0.0299,-0.0279,-0.025,-0.0248,-0.0246,-0.0226,-0.022,-0.0216,0,0,0,0,0,0,-0.0386,-0.0379,-0.0379,-0.0383,-0.0376,-0.0362,-0.0363,-0.036,-0.0346,-0.0345,-0.033,-0.0325,-0.0297,-0.0293,-0.0308,-0.0253,-0.0269,-0.0266,-0.0255,-0.025,-0.0246,-0.0264,-0.0308,0,0,0,0,0,-0.0391,-0.0393,-0.0384,-0.0389,-0.0386,-0.0377,-0.0374,-0.0369,-0.0355,-0.035,-0.0337,-0.0316,-0.0284,-0.0273,-0.0252,-0.0227,-0.0218,-0.0211,-0.0207,-0.0204,-0.0215,-0.0167,-0.0159,-0.0237,-0.0237,-0.0237,0,0,-0.0399,-0.0395,-0.0397,-0.0391,-0.0386,-0.0379,-0.0376,-0.0373,-0.0363,-0.0348,-0.0332,-0.0306,-0.0275,-0.0239,-0.0226,-0.0234,-0.0176,-0.0201,-0.0198,-0.0212,-0.0163,-0.0156,-0.0149,-0.0235,-0.0235,-0.0236,0,0,-0.041,-0.041,-0.0413,-0.0406,-0.0399,-0.0388,-0.0391,-0.0378,-0.0368,-0.0346,-0.0322,-0.0284,-0.0257,-0.0217,-0.0194,-0.0158,-0.0157,-0.0154,-0.0148,-0.01,-0.0093,-0.0087,-0.0064,-0.0057,-0.0151,-0.0151,-0.0151,0,-0.042,-0.0425,-0.0413,-0.0411,-0.0409,-0.0394,-0.0396,-0.0376,-0.0357,-0.0345,-0.0341,-0.0271,-0.024,-0.0182,-0.0161,-0.0149,-0.0136,-0.0168,-0.0095,-0.0089,-0.0083,-0.0061,-0.0053,-0.015,-0.015,-0.015,-0.015,0,-0.0428,-0.0434,-0.0435,-0.0426,-0.0419,-0.0419,-0.0393,-0.0382,-0.0367,-0.0345,-0.0297,-0.0245,-0.0208,-0.0177,-0.0156,-0.0097,-0.0105,-0.0096,-0.0109,-0.0074,-0.0053,-0.0045,-0.0148,-0.0148,-0.0148,-0.0149,0,0,-0.0449,-0.0444,-0.0447,-0.0453,-0.0431,-0.043,-0.0404,-0.0381,-0.0371,-0.0326,-0.0305,-0.0219,-0.02,-0.0173,-0.0133,-0.0082,-0.0016,-0.0075,-0.0073,-0.0058,0.0071,0.0067,0.0075,0.0006,0.0007,0.0008,0.007,0,-0.0465,-0.0478,-0.0462,-0.0472,-0.0479,-0.0451,-0.0432,-0.0403,-0.0372,-0.0344,-0.0271,-0.0234,-0.0194,-0.0173,-0.0111,-0.0046,0.0006,-0.0035,0.0038,0.0039,0.0028,0.0085,0.0013,0.0076,0.0078,0.0079,0.008,0,-0.0479,-0.049,-0.0508,-0.051,-0.0509,-0.0507,-0.0488,-0.0466,-0.0406,-0.038,-0.0322,-0.0276,-0.0191,-0.0165,-0.0034,-0.0066,0.0,0.0055,0.0059,0.0048,0.0051,0.0034,0.0094,0.0093,0.0092,0.0091,0.009,0,-0.0515,-0.0522,-0.0546,-0.0546,-0.0536,-0.054,-0.0532,-0.0486,-0.0475,-0.0409,-0.0394,-0.0292,-0.0248,-0.0144,-0.0029,-0.0031,0.0105,0.0117,0.0176,0.0175,0.0146,0.0139,0.0212,0.0212,0.0211,0.0211,0.0211,0,-0.0537,-0.0558,-0.0573,-0.0587,-0.0618,-0.0588,-0.0604,-0.0574,-0.0534,-0.0529,-0.0425,-0.0393,-0.024,-0.0145,-0.004,0.0089,0.01,0.0182,0.02,0.0155,0.0148,0.0152,0.0144,0.0214,0.0213,0.0213,0.0212,0,-0.0568,-0.0576,-0.0613,-0.0628,-0.064,-0.0663,-0.0674,-0.0687,-0.0626,-0.0617,-0.0599,-0.0467,-0.0333,-0.0184,-0.0013,0.0067,0.0194,0.0236,0.0161,0.0173,0.0231,0.0224,0.0308,0.0308,0.0309,0.0309,0.031,0,-0.0582,-0.0605,-0.0659,-0.0701,-0.0717,-0.0751,-0.0784,-0.0747,-0.0757,-0.0667,-0.0671,-0.0526,-0.043,-0.0194,-0.0025,0.0182,0.0213,0.0265,0.0271,0.0236,0.0245,0.0237,0.023,0.031,0.0311,0.0311,0.0311,0,-0.0613,-0.064,-0.0677,-0.0764,-0.0824,-0.087,-0.0907,-0.091,-0.0865,-0.0828,-0.0728,-0.0574,-0.0415,-0.0207,-0.004,0.0108,0.0226,0.0271,0.0271,0.0277,0.024,0.0247,0.0239,0.0312,0.0312,0.0312,0.0312,0,-0.0647,-0.0691,-0.0752,-0.0818,-0.0898,-0.0948,-0.0961,-0.096,-0.0944,-0.0844,-0.082,-0.0613,-0.0498,-0.0245,-0.0095,0.0059,0.0102,0.0134,0.0142,0.0142,0.0085,0.0013,0.0038,0,0,0,0,0,-0.0682,-0.0735,-0.0803,-0.0874,-0.0946,-0.0979,-0.1024,-0.1023,-0.0988,-0.0943,-0.0872,-0.0721,-0.0447,-0.0311,-0.0159,-0.0077,0.013,0.0106,0.017,0.0322,0.032,0.0283,0,0,0,0,0,0,-0.0718,-0.0789,-0.0808,-0.0889,-0.0939,-0.1012,-0.1036,-0.1019,-0.0975,-0.0922,-0.0776,-0.0699,-0.043,-0.0538,-0.0159,-0.0107,-0.005,0.0238,0.0241,0.0323,0.0321,0.032,0.0281,0,0,0,0,0]}]]